,,Stat1,,Stat2,,Stat3,,Stat4,,Wind1,,Wind1,
time,status,PR1M_SUM,status,RH1M_AVG,status,SR1M_AVG,status,TA1M_AVG,status,W1dAve1m,status,W1sAve1m,
1999-08-20, 00:00:00,VALID,0,VALID,98.8863,VALID,-0.0169808,VALID,19.3475,VALID,262,VALID,0.124777,
1999-08-20, 00:01:00,VALID,0,VALID,98.8762,VALID,-0.0169808,VALID,19.3512,VALID,262,VALID,0.00575658,
1999-08-20, 00:02:00,VALID,0,VALID,98.8571,VALID,0,VALID,19.3577,VALID,200,VALID,0.179893,
1999-08-20, 00:03:00,VALID,0,VALID,98.7681,VALID,-0.0339617,VALID,19.3221,VALID,155,VALID,0.492989,
1999-08-20, 00:04:00,VALID,0,VALID,98.674,VALID,-0.0169808,VALID,19.2928,VALID,152,VALID,0.653033,
1999-08-20, 00:05:00,VALID,0,VALID,98.6307,VALID,-0.0169808,VALID,19.2936,VALID,152,VALID,0.835491,
1999-08-20, 00:06:00,VALID,0,VALID,98.6473,VALID,0,VALID,19.2868,VALID,147,VALID,0.710248,
1999-08-20, 00:07:00,VALID,0,VALID,98.6409,VALID,0.0169808,VALID,19.2936,VALID,146,VALID,0.81989,
1999-08-20, 00:08:00,VALID,0,VALID,98.735,VALID,-0.0169808,VALID,19.3157,VALID,146,VALID,0.691295,
1999-08-20, 00:09:00,VALID,0,VALID,98.7681,VALID,0,VALID,19.3612,VALID,148,VALID,0.541741,
1999-08-20, 00:10:00,VALID,0,VALID,98.7846,VALID,0,VALID,19.3768,VALID,171,VALID,0.382353,
1999-08-20, 00:11:00,VALID,0,VALID,98.8215,VALID,-0.0169808,VALID,19.4159,VALID,180,VALID,0.455448,
1999-08-20, 00:12:00,VALID,0,VALID,98.8342,VALID,-0.0169808,VALID,19.4516,VALID,192,VALID,0.447321,
1999-08-20, 00:13:00,VALID,0,VALID,98.8291,VALID,-0.0169808,VALID,19.4683,VALID,200,VALID,0.0484375,
1999-08-20, 00:14:00,VALID,0,VALID,98.8431,VALID,-0.0339617,VALID,19.4867,VALID,204,VALID,0,
1999-08-20, 00:15:00,VALID,0,VALID,98.7732,VALID,-0.0169808,VALID,19.4969,VALID,157,VALID,0.00886824,
1999-08-20, 00:16:00,VALID,0,VALID,98.6206,VALID,-0.0339617,VALID,19.4812,VALID,105,VALID,0.681027,
1999-08-20, 00:17:00,VALID,0,VALID,98.5023,VALID,0,VALID,19.4479,VALID,86,VALID,1.25223,
1999-08-20, 00:18:00,VALID,0,VALID,98.3637,VALID,0,VALID,19.4221,VALID,84,VALID,1.04159,
1999-08-20, 00:19:00,VALID,0,VALID,98.3001,VALID,-0.0339617,VALID,19.3965,VALID,88,VALID,0.791385,
1999-08-20, 00:20:00,VALID,0,VALID,98.2849,VALID,-0.0169808,VALID,19.3801,VALID,96,VALID,0.414509,
1999-08-20, 00:21:00,VALID,0,VALID,98.3116,VALID,0,VALID,19.3898,VALID,112,VALID,0.00758929,
1999-08-20, 00:22:00,VALID,0,VALID,98.3027,VALID,0,VALID,19.393,VALID,123,VALID,0,
1999-08-20, 00:23:00,VALID,0,VALID,98.2276,VALID,0,VALID,19.3898,VALID,184,VALID,0.0869932,
1999-08-20, 00:24:00,VALID,0,VALID,98.1857,VALID,-0.0169808,VALID,19.3768,VALID,204,VALID,0.619196,
1999-08-20, 00:25:00,VALID,0,VALID,98.1844,VALID,-0.0169808,VALID,19.3808,VALID,211,VALID,0.675,
1999-08-20, 00:26:00,VALID,0,VALID,98.1704,VALID,0,VALID,19.3542,VALID,221,VALID,0.945772,
1999-08-20, 00:27:00,VALID,0,VALID,98.2022,VALID,-0.0339617,VALID,19.3482,VALID,224,VALID,0.943623,
1999-08-20, 00:28:00,VALID,0,VALID,98.3039,VALID,-0.0679233,VALID,19.3549,VALID,230,VALID,1.00536,
1999-08-20, 00:29:00,VALID,0,VALID,98.3612,VALID,-0.0339617,VALID,19.3582,VALID,231,VALID,0.933036,
1999-08-20, 00:30:00,VALID,0,VALID,98.426,VALID,-0.0339617,VALID,19.3415,VALID,233,VALID,0.855469,
1999-08-20, 00:31:00,VALID,0,VALID,98.4909,VALID,-0.0169808,VALID,19.3251,VALID,223,VALID,0.646326,
1999-08-20, 00:32:00,VALID,0,VALID,98.5417,VALID,-0.0169808,VALID,19.3254,VALID,218,VALID,0.497991,
1999-08-20, 00:33:00,VALID,0,VALID,98.5633,VALID,-0.0169808,VALID,19.3226,VALID,210,VALID,0.110268,
1999-08-20, 00:34:00,VALID,0,VALID,98.6206,VALID,-0.0339617,VALID,19.3192,VALID,210,VALID,0.000229779,
1999-08-20, 00:35:00,VALID,0,VALID,98.6765,VALID,-0.0339617,VALID,19.3318,VALID,207,VALID,0.0696791,
1999-08-20, 00:36:00,VALID,0,VALID,98.6587,VALID,-0.0679233,VALID,19.3286,VALID,191,VALID,0.189732,
1999-08-20, 00:37:00,VALID,0,VALID,98.6994,VALID,0,VALID,19.3356,VALID,165,VALID,0.171429,
1999-08-20, 00:38:00,VALID,0,VALID,98.707,VALID,-0.0339617,VALID,19.3284,VALID,164,VALID,0.162224,
1999-08-20, 00:39:00,VALID,0,VALID,98.6447,VALID,-0.0169808,VALID,19.3092,VALID,164,VALID,0.268792,
1999-08-20, 00:40:00,VALID,0,VALID,98.6524,VALID,-0.0169808,VALID,19.3159,VALID,161,VALID,0.303125,
1999-08-20, 00:41:00,VALID,0,VALID,98.646,VALID,0,VALID,19.3023,VALID,139,VALID,0.426116,
1999-08-20, 00:42:00,VALID,0,VALID,98.6371,VALID,0,VALID,19.2993,VALID,118,VALID,0.536535,
1999-08-20, 00:43:00,VALID,0,VALID,98.5481,VALID,-0.0339617,VALID,19.2702,VALID,112,VALID,0.691934,
1999-08-20, 00:44:00,VALID,0,VALID,98.4476,VALID,0,VALID,19.228,VALID,109,VALID,0.767634,
1999-08-20, 00:45:00,VALID,0,VALID,98.468,VALID,-0.0169808,VALID,19.2222,VALID,127,VALID,0.720312,
1999-08-20, 00:46:00,VALID,0,VALID,98.4667,VALID,-0.0169808,VALID,19.2088,VALID,138,VALID,0.56204,
1999-08-20, 00:47:00,VALID,0,VALID,98.4158,VALID,0,VALID,19.1797,VALID,154,VALID,0.615076,
1999-08-20, 00:48:00,VALID,0,VALID,98.4146,VALID,-0.0339617,VALID,19.1705,VALID,189,VALID,0.378571,
1999-08-20, 00:49:00,VALID,0,VALID,98.4832,VALID,0,VALID,19.1539,VALID,206,VALID,0.204018,
1999-08-20, 00:50:00,VALID,0,VALID,98.5824,VALID,-0.0169808,VALID,19.1643,VALID,205,VALID,0.308364,
1999-08-20, 00:51:00,VALID,0,VALID,98.6396,VALID,-0.0509425,VALID,19.1705,VALID,208,VALID,0.209882,
1999-08-20, 00:52:00,VALID,0,VALID,98.6587,VALID,-0.0169808,VALID,19.1638,VALID,227,VALID,0.33058,
1999-08-20, 00:53:00,VALID,0,VALID,98.6765,VALID,-0.0169808,VALID,19.1703,VALID,230,VALID,0.412946,
1999-08-20, 00:54:00,VALID,0,VALID,98.7134,VALID,-0.0339617,VALID,19.1807,VALID,225,VALID,0.0804228,
1999-08-20, 00:55:00,VALID,0,VALID,98.7299,VALID,-0.0679233,VALID,19.1768,VALID,206,VALID,0.113387,
1999-08-20, 00:56:00,VALID,0,VALID,98.7579,VALID,-0.0339617,VALID,19.1961,VALID,175,VALID,0.29375,
1999-08-20, 00:57:00,VALID,0,VALID,98.7465,VALID,0,VALID,19.2061,VALID,181,VALID,0.363393,
1999-08-20, 00:58:00,VALID,0,VALID,98.7325,VALID,-0.0169808,VALID,19.1892,VALID,178,VALID,0.182445,
1999-08-20, 00:59:00,VALID,0,VALID,98.7477,VALID,-0.0679233,VALID,19.2093,VALID,176,VALID,0.000422297,
1999-08-20, 01:00:00,VALID,0,VALID,98.7185,VALID,-0.0339617,VALID,19.2225,VALID,176,VALID,0.0241071,
1999-08-20, 01:01:00,VALID,0,VALID,98.7083,VALID,0,VALID,19.2128,VALID,176,VALID,0.000446429,
1999-08-20, 01:02:00,VALID,0,VALID,98.707,VALID,0,VALID,19.2118,VALID,171,VALID,0.0222886,
1999-08-20, 01:03:00,VALID,0,VALID,98.6994,VALID,-0.0509425,VALID,19.2252,VALID,151,VALID,0.321579,
1999-08-20, 01:04:00,VALID,0,VALID,98.6778,VALID,0,VALID,19.2516,VALID,127,VALID,0.368527,
1999-08-20, 01:05:00,VALID,0,VALID,98.6231,VALID,-0.0509425,VALID,19.2414,VALID,98,VALID,0.562723,
1999-08-20, 01:06:00,VALID,0,VALID,98.5366,VALID,-0.0679233,VALID,19.2093,VALID,94,VALID,0.622702,
1999-08-20, 01:07:00,VALID,0,VALID,98.4807,VALID,-0.0509425,VALID,19.1964,VALID,87,VALID,0.635346,
1999-08-20, 01:08:00,VALID,0,VALID,98.412,VALID,-0.0169808,VALID,19.1735,VALID,95,VALID,0.57433,
1999-08-20, 01:09:01,VALID,0,VALID,98.3942,VALID,-0.0169808,VALID,19.1539,VALID,107,VALID,0.532143,
1999-08-20, 01:10:00,VALID,0,VALID,98.3904,VALID,-0.0339617,VALID,19.1479,VALID,112,VALID,0.32307,
1999-08-20, 01:11:00,VALID,0,VALID,98.4069,VALID,-0.0339617,VALID,19.1382,VALID,123,VALID,0.226985,
1999-08-20, 01:12:00,VALID,0,VALID,98.412,VALID,-0.0169808,VALID,19.1444,VALID,139,VALID,0.338839,
1999-08-20, 01:13:00,VALID,0,VALID,98.4184,VALID,-0.0679233,VALID,19.1579,VALID,148,VALID,0.400223,
1999-08-20, 01:14:00,VALID,0,VALID,98.4133,VALID,0,VALID,19.1511,VALID,156,VALID,0.509191,
1999-08-20, 01:15:00,VALID,0,VALID,98.4667,VALID,-0.101885,VALID,19.1412,VALID,161,VALID,0.605574,
1999-08-20, 01:16:00,VALID,0,VALID,98.4807,VALID,-0.0339617,VALID,19.1318,VALID,169,VALID,0.435937,
1999-08-20, 01:17:00,VALID,0,VALID,98.5061,VALID,-0.0679233,VALID,19.132,VALID,170,VALID,0.325,
1999-08-20, 01:18:00,VALID,0,VALID,98.5557,VALID,-0.0339617,VALID,19.1315,VALID,168,VALID,0.0886949,
1999-08-20, 01:19:00,VALID,0,VALID,98.5735,VALID,-0.0509425,VALID,19.1218,VALID,162,VALID,0,
1999-08-20, 01:20:01,VALID,0,VALID,98.5659,VALID,-0.0679233,VALID,19.1221,VALID,162,VALID,0.0125,
1999-08-20, 01:21:00,VALID,0,VALID,98.5557,VALID,-0.0509425,VALID,19.1352,VALID,161,VALID,0.160491,
1999-08-20, 01:22:00,VALID,0,VALID,98.5315,VALID,-0.0169808,VALID,19.138,VALID,119,VALID,0.188189,
1999-08-20, 01:23:00,VALID,0,VALID,98.4438,VALID,0,VALID,19.1218,VALID,102,VALID,0.628801,
1999-08-20, 01:24:00,VALID,0,VALID,98.3103,VALID,-0.0679233,VALID,19.0997,VALID,88,VALID,0.610714,
1999-08-20, 01:25:00,VALID,0,VALID,98.2607,VALID,-0.0339617,VALID,19.0868,VALID,88,VALID,0.382813,
1999-08-20, 01:26:00,VALID,0,VALID,98.2899,VALID,0,VALID,19.0835,VALID,88,VALID,0.159007,
1999-08-20, 01:27:00,VALID,0,VALID,98.3179,VALID,-0.0169808,VALID,19.0771,VALID,88,VALID,0,
1999-08-20, 01:28:00,VALID,0,VALID,98.3764,VALID,-0.0169808,VALID,19.0865,VALID,88,VALID,0.0078125,
1999-08-20, 01:29:00,VALID,0,VALID,98.468,VALID,-0.0339617,VALID,19.0999,VALID,88,VALID,0,
1999-08-20, 01:30:00,VALID,0,VALID,98.4781,VALID,-0.0339617,VALID,19.1027,VALID,132,VALID,0,
1999-08-20, 01:31:01,VALID,0,VALID,98.3802,VALID,-0.0509425,VALID,19.0771,VALID,188,VALID,0,
1999-08-20, 01:32:00,VALID,0,VALID,98.4133,VALID,-0.0169808,VALID,19.0676,VALID,203,VALID,0,
1999-08-20, 01:33:00,VALID,0,VALID,98.3802,VALID,0,VALID,19.0612,VALID,239,VALID,0.284152,
1999-08-20, 01:34:00,VALID,0,VALID,98.379,VALID,0,VALID,19.0314,VALID,244,VALID,0.300781,
1999-08-20, 01:35:00,VALID,0,VALID,98.3891,VALID,0,VALID,19.0249,VALID,242,VALID,0.216427,
1999-08-20, 01:36:00,VALID,0,VALID,98.384,VALID,-0.0679233,VALID,19.0224,VALID,238,VALID,0,
1999-08-20, 01:37:00,VALID,0,VALID,98.3421,VALID,-0.0679233,VALID,19.0162,VALID,237,VALID,0,
1999-08-20, 01:38:00,VALID,0,VALID,98.2887,VALID,-0.0849042,VALID,18.9968,VALID,237,VALID,0,
1999-08-20, 01:39:00,VALID,0,VALID,98.2899,VALID,-0.0509425,VALID,18.9702,VALID,232,VALID,0,
1999-08-20, 01:40:00,VALID,0,VALID,98.2531,VALID,-0.0169808,VALID,18.9642,VALID,220,VALID,0.0426339,
1999-08-20, 01:41:00,VALID,0,VALID,98.2238,VALID,-0.0339617,VALID,18.9379,VALID,220,VALID,0,
1999-08-20, 01:42:01,VALID,0,VALID,98.2658,VALID,-0.0339617,VALID,18.9419,VALID,220,VALID,0,
1999-08-20, 01:43:00,VALID,0,VALID,98.2632,VALID,0,VALID,18.9352,VALID,220,VALID,0,
1999-08-20, 01:44:00,VALID,0,VALID,98.2874,VALID,-0.0169808,VALID,18.9155,VALID,218,VALID,0,
1999-08-20, 01:45:00,VALID,0,VALID,98.206,VALID,-0.0169808,VALID,18.8996,VALID,190,VALID,0.194196,
1999-08-20, 01:46:00,VALID,0,VALID,98.0814,VALID,-0.0509425,VALID,18.8701,VALID,174,VALID,0.285616,
1999-08-20, 01:47:00,VALID,0,VALID,97.9161,VALID,-0.0169808,VALID,18.838,VALID,155,VALID,0.29772,
1999-08-20, 01:48:00,VALID,0,VALID,97.7088,VALID,-0.0509425,VALID,18.7932,VALID,133,VALID,0.399107,
1999-08-20, 01:49:00,VALID,0,VALID,97.5931,VALID,-0.0339617,VALID,18.7512,VALID,120,VALID,0.60067,
1999-08-20, 01:50:00,VALID,0,VALID,97.5206,VALID,-0.0679233,VALID,18.7224,VALID,102,VALID,1.13534,
1999-08-20, 01:51:00,VALID,0,VALID,97.808,VALID,-0.0169808,VALID,18.7222,VALID,103,VALID,1.10621,
1999-08-20, 01:52:00,VALID,0,VALID,98.0738,VALID,0,VALID,18.7378,VALID,94,VALID,1.17679,
1999-08-20, 01:53:01,VALID,0,VALID,98.3077,VALID,-0.0169808,VALID,18.754,VALID,109,VALID,0.734598,
1999-08-20, 01:54:00,VALID,0,VALID,98.2645,VALID,0,VALID,18.7187,VALID,111,VALID,0.602711,
1999-08-20, 01:55:00,VALID,0,VALID,98.2989,VALID,-0.0169808,VALID,18.7252,VALID,105,VALID,0.431588,
1999-08-20, 01:56:00,VALID,0,VALID,98.3802,VALID,-0.0679233,VALID,18.7314,VALID,106,VALID,0.0859375,
1999-08-20, 01:57:00,VALID,0,VALID,98.4209,VALID,-0.0679233,VALID,18.7348,VALID,106,VALID,0,
1999-08-20, 01:58:00,VALID,0,VALID,98.4184,VALID,-0.0339617,VALID,18.7286,VALID,129,VALID,0,
1999-08-20, 01:59:00,VALID,0,VALID,98.4502,VALID,-0.0339617,VALID,18.7284,VALID,196,VALID,0.0713682,
1999-08-20, 02:00:00,VALID,0,VALID,98.4553,VALID,-0.0169808,VALID,18.7353,VALID,207,VALID,0.210714,
1999-08-20, 02:01:00,VALID,0,VALID,98.4108,VALID,-0.0169808,VALID,18.7189,VALID,221,VALID,0.383259,
1999-08-20, 02:02:00,VALID,0,VALID,98.3205,VALID,-0.0509425,VALID,18.6899,VALID,224,VALID,0.547564,
1999-08-20, 02:03:00,VALID,0,VALID,98.2505,VALID,-0.0169808,VALID,18.6638,VALID,217,VALID,0.380068,
1999-08-20, 02:04:00,VALID,0,VALID,98.3929,VALID,-0.0339617,VALID,18.6605,VALID,226,VALID,0.68817,
1999-08-20, 02:05:00,VALID,0,VALID,98.4553,VALID,0.0169808,VALID,18.6769,VALID,210,VALID,0.335714,
1999-08-20, 02:06:00,VALID,0,VALID,98.4731,VALID,0,VALID,18.6702,VALID,220,VALID,0.222197,
1999-08-20, 02:07:00,VALID,0,VALID,98.5455,VALID,0.0169808,VALID,18.6993,VALID,228,VALID,0.230997,
1999-08-20, 02:08:00,VALID,0,VALID,98.6587,VALID,-0.0169808,VALID,18.7222,VALID,227,VALID,0.42567,
1999-08-20, 02:09:00,VALID,0,VALID,98.6778,VALID,0.0169808,VALID,18.7282,VALID,212,VALID,0.182589,
1999-08-20, 02:10:00,VALID,0,VALID,98.6307,VALID,0,VALID,18.7289,VALID,209,VALID,0.0404412,
1999-08-20, 02:11:00,VALID,0,VALID,98.5379,VALID,-0.0169808,VALID,18.6931,VALID,208,VALID,0.014147,
1999-08-20, 02:12:00,VALID,0,VALID,98.5176,VALID,0,VALID,18.6767,VALID,207,VALID,0.145536,
1999-08-20, 02:13:00,VALID,0,VALID,98.3853,VALID,0,VALID,18.6188,VALID,204,VALID,0.0683036,
1999-08-20, 02:14:00,VALID,0,VALID,98.3472,VALID,0,VALID,18.5992,VALID,204,VALID,0,
1999-08-20, 02:15:00,VALID,0,VALID,98.4654,VALID,0,VALID,18.6193,VALID,204,VALID,0,
1999-08-20, 02:16:00,VALID,0,VALID,98.4654,VALID,0.0169808,VALID,18.6188,VALID,184,VALID,0.222321,
1999-08-20, 02:17:00,VALID,0,VALID,98.2925,VALID,0,VALID,18.541,VALID,120,VALID,0.371205,
1999-08-20, 02:18:00,VALID,0,VALID,98.2327,VALID,0,VALID,18.4995,VALID,119,VALID,0.284697,
1999-08-20, 02:19:00,VALID,0,VALID,98.1997,VALID,-0.0339617,VALID,18.464,VALID,119,VALID,0,
1999-08-20, 02:20:00,VALID,0,VALID,98.1971,VALID,-0.0169808,VALID,18.4321,VALID,119,VALID,0,
1999-08-20, 02:21:00,VALID,0,VALID,98.2238,VALID,0,VALID,18.4284,VALID,119,VALID,0,
1999-08-20, 02:22:00,VALID,0,VALID,98.3281,VALID,-0.0169808,VALID,18.4376,VALID,119,VALID,0,
1999-08-20, 02:23:00,VALID,0,VALID,98.4514,VALID,0,VALID,18.4575,VALID,121,VALID,0,
1999-08-20, 02:24:00,VALID,0,VALID,98.6689,VALID,-0.0509425,VALID,18.5191,VALID,196,VALID,0,
1999-08-20, 02:25:00,VALID,0,VALID,98.8456,VALID,-0.0169808,VALID,18.583,VALID,259,VALID,0,
1999-08-20, 02:26:00,VALID,0,VALID,98.88,VALID,0,VALID,18.6252,VALID,259,VALID,0,
1999-08-20, 02:27:00,VALID,0,VALID,98.9054,VALID,0,VALID,18.6705,VALID,259,VALID,0,
1999-08-20, 02:28:00,VALID,0,VALID,98.8825,VALID,0,VALID,18.6933,VALID,259,VALID,0,
1999-08-20, 02:29:00,VALID,0,VALID,98.7782,VALID,0.0169808,VALID,18.6906,VALID,259,VALID,0,
1999-08-20, 02:30:00,VALID,0,VALID,98.7134,VALID,0,VALID,18.6707,VALID,259,VALID,0,
1999-08-20, 02:31:00,VALID,0,VALID,98.6193,VALID,0,VALID,18.6541,VALID,259,VALID,0,
1999-08-20, 02:32:00,VALID,0,VALID,98.5951,VALID,0,VALID,18.664,VALID,259,VALID,0,
1999-08-20, 02:33:00,VALID,0,VALID,98.5608,VALID,0,VALID,18.6705,VALID,259,VALID,0,
1999-08-20, 02:34:00,VALID,0,VALID,98.6651,VALID,-0.0169808,VALID,18.7319,VALID,259,VALID,0,
1999-08-20, 02:35:00,VALID,0,VALID,98.7744,VALID,0,VALID,18.7865,VALID,261,VALID,0,
1999-08-20, 02:36:00,VALID,0,VALID,98.8571,VALID,-0.0169808,VALID,18.8482,VALID,299,VALID,0.139732,
1999-08-20, 02:37:00,VALID,0,VALID,98.7706,VALID,0,VALID,18.8422,VALID,314,VALID,0.0546875,
1999-08-20, 02:38:00,VALID,0,VALID,98.693,VALID,-0.0169808,VALID,18.8449,VALID,313,VALID,0.0459559,
1999-08-20, 02:39:00,VALID,0,VALID,98.5977,VALID,0,VALID,18.8484,VALID,306,VALID,0,
1999-08-20, 02:40:00,VALID,0,VALID,98.4845,VALID,0,VALID,18.8322,VALID,302,VALID,0,
1999-08-20, 02:41:00,VALID,0,VALID,98.4031,VALID,0,VALID,18.8392,VALID,302,VALID,0,
1999-08-20, 02:42:00,VALID,0,VALID,98.3866,VALID,0,VALID,18.8382,VALID,302,VALID,0,
1999-08-20, 02:43:00,VALID,0,VALID,98.4807,VALID,0,VALID,18.8708,VALID,256,VALID,0,
1999-08-20, 02:44:00,VALID,0,VALID,98.4692,VALID,-0.0339617,VALID,18.8969,VALID,140,VALID,0,
1999-08-20, 02:45:00,VALID,0,VALID,98.4413,VALID,0,VALID,18.9162,VALID,139,VALID,0,
1999-08-20, 02:46:00,VALID,0,VALID,98.3904,VALID,-0.0339617,VALID,18.9257,VALID,139,VALID,0,
1999-08-20, 02:47:00,VALID,0,VALID,98.3484,VALID,0,VALID,18.9255,VALID,139,VALID,0,
1999-08-20, 02:48:00,VALID,0,VALID,98.3408,VALID,-0.0339617,VALID,18.9386,VALID,139,VALID,0,
1999-08-20, 02:49:00,VALID,0,VALID,98.3179,VALID,0.0169808,VALID,18.958,VALID,139,VALID,0,
1999-08-20, 02:50:00,VALID,0,VALID,98.3116,VALID,0.0169808,VALID,18.9806,VALID,139,VALID,0,
1999-08-20, 02:51:00,VALID,0,VALID,98.3319,VALID,0,VALID,18.9898,VALID,139,VALID,0,
1999-08-20, 02:52:00,VALID,0,VALID,98.3421,VALID,0,VALID,19.0229,VALID,139,VALID,0,
1999-08-20, 02:53:00,VALID,0,VALID,98.3281,VALID,0,VALID,19.0293,VALID,139,VALID,0,
1999-08-20, 02:54:00,VALID,0,VALID,98.3484,VALID,0,VALID,19.0455,VALID,118,VALID,0,
1999-08-20, 02:55:00,VALID,0,VALID,98.281,VALID,0,VALID,19.042,VALID,105,VALID,0,
1999-08-20, 02:56:00,VALID,0,VALID,98.2632,VALID,0,VALID,19.0482,VALID,99,VALID,0.394643,
1999-08-20, 02:57:00,VALID,0,VALID,98.2442,VALID,0,VALID,19.0517,VALID,100,VALID,0.659598,
1999-08-20, 02:58:00,VALID,0,VALID,98.234,VALID,0.0169808,VALID,19.0549,VALID,96,VALID,0.673024,
1999-08-20, 02:59:00,VALID,0,VALID,98.2175,VALID,0,VALID,19.0646,VALID,103,VALID,0.689189,
1999-08-20, 03:00:00,VALID,0,VALID,98.2505,VALID,-0.0339617,VALID,19.0646,VALID,106,VALID,0.66942,
1999-08-20, 03:01:00,VALID,0,VALID,98.2607,VALID,-0.0169808,VALID,19.0838,VALID,109,VALID,0.68125,
1999-08-20, 03:02:00,VALID,0,VALID,98.2734,VALID,0,VALID,19.0801,VALID,104,VALID,0.439108,
1999-08-20, 03:03:00,VALID,0,VALID,98.2429,VALID,0,VALID,19.0965,VALID,111,VALID,0,
1999-08-20, 03:04:00,VALID,0,VALID,98.2518,VALID,-0.0339617,VALID,19.1036,VALID,181,VALID,0,
1999-08-20, 03:05:00,VALID,0,VALID,98.2454,VALID,-0.0509425,VALID,19.1066,VALID,129,VALID,0.371429,
1999-08-20, 03:06:00,VALID,0,VALID,98.2442,VALID,-0.0509425,VALID,19.1096,VALID,105,VALID,0.230699,
1999-08-20, 03:07:00,VALID,0,VALID,98.2416,VALID,-0.0169808,VALID,19.0997,VALID,105,VALID,0.00105574,
1999-08-20, 03:08:00,VALID,0,VALID,98.2442,VALID,-0.0339617,VALID,19.1129,VALID,105,VALID,0,
1999-08-20, 03:09:00,VALID,0,VALID,98.3001,VALID,-0.0169808,VALID,19.1263,VALID,104,VALID,0.0533482,
1999-08-20, 03:10:00,VALID,0,VALID,98.3383,VALID,-0.0169808,VALID,19.1355,VALID,108,VALID,0.417509,
1999-08-20, 03:11:00,VALID,0,VALID,98.3688,VALID,0,VALID,19.1417,VALID,114,VALID,0.504434,
1999-08-20, 03:12:00,VALID,0,VALID,98.3739,VALID,-0.0169808,VALID,19.1482,VALID,107,VALID,0.476563,
1999-08-20, 03:13:00,VALID,0,VALID,98.3917,VALID,-0.0339617,VALID,19.1516,VALID,106,VALID,0.277232,
1999-08-20, 03:14:00,VALID,0,VALID,98.4095,VALID,-0.0509425,VALID,19.1616,VALID,106,VALID,0.309053,
1999-08-20, 03:15:00,VALID,0,VALID,98.4743,VALID,0,VALID,19.1713,VALID,124,VALID,0.376056,
1999-08-20, 03:16:00,VALID,0,VALID,98.4921,VALID,-0.0339617,VALID,19.181,VALID,140,VALID,0.216071,
1999-08-20, 03:17:00,VALID,0,VALID,98.5137,VALID,-0.0169808,VALID,19.1805,VALID,149,VALID,0.190625,
1999-08-20, 03:18:00,VALID,0,VALID,98.5328,VALID,0,VALID,19.1969,VALID,154,VALID,0.00137868,
1999-08-20, 03:19:00,VALID,0,VALID,98.5036,VALID,-0.0169808,VALID,19.2036,VALID,223,VALID,0,
1999-08-20, 03:20:00,VALID,0,VALID,98.5087,VALID,-0.0339617,VALID,19.1931,VALID,226,VALID,0,
1999-08-20, 03:21:00,VALID,0,VALID,98.4858,VALID,0,VALID,19.2061,VALID,251,VALID,0,
1999-08-20, 03:22:00,VALID,0,VALID,98.4476,VALID,0,VALID,19.2001,VALID,285,VALID,0,
1999-08-20, 03:23:00,VALID,0,VALID,98.4718,VALID,0,VALID,19.1802,VALID,313,VALID,0,
1999-08-20, 03:24:00,VALID,0,VALID,98.5659,VALID,-0.0169808,VALID,19.2128,VALID,10,VALID,0.0930804,
1999-08-20, 03:25:00,VALID,0,VALID,98.6167,VALID,0,VALID,19.2386,VALID,110,VALID,0.586607,
1999-08-20, 03:26:00,VALID,0,VALID,98.6117,VALID,0.0169808,VALID,19.2419,VALID,104,VALID,0.35432,
1999-08-20, 03:27:00,VALID,0,VALID,98.6078,VALID,-0.0169808,VALID,19.2481,VALID,108,VALID,0.179054,
1999-08-20, 03:28:00,VALID,0,VALID,98.5697,VALID,-0.0509425,VALID,19.2414,VALID,101,VALID,0.353571,
1999-08-20, 03:29:00,VALID,0,VALID,98.5277,VALID,-0.0169808,VALID,19.2548,VALID,131,VALID,0.110045,
1999-08-20, 03:30:00,VALID,0,VALID,98.5417,VALID,0,VALID,19.2677,VALID,168,VALID,0,
1999-08-20, 03:31:01,VALID,0,VALID,98.5036,VALID,-0.0169808,VALID,19.2739,VALID,170,VALID,0,
1999-08-20, 03:32:00,VALID,0,VALID,98.4616,VALID,-0.0169808,VALID,19.2642,VALID,170,VALID,0,
1999-08-20, 03:33:00,VALID,0,VALID,98.4603,VALID,0,VALID,19.2675,VALID,170,VALID,0,
1999-08-20, 03:34:00,VALID,0,VALID,98.4108,VALID,-0.0169808,VALID,19.2707,VALID,166,VALID,0.0951287,
1999-08-20, 03:35:00,VALID,0,VALID,98.4209,VALID,-0.0169808,VALID,19.2841,VALID,158,VALID,0.00654561,
1999-08-20, 03:36:00,VALID,0,VALID,98.4209,VALID,0.0169808,VALID,19.2896,VALID,236,VALID,0.165179,
1999-08-20, 03:37:00,VALID,0,VALID,98.3561,VALID,0,VALID,19.2868,VALID,275,VALID,0,
1999-08-20, 03:38:00,VALID,0,VALID,98.3243,VALID,0.0169808,VALID,19.2864,VALID,257,VALID,0,
1999-08-20, 03:39:00,VALID,0,VALID,98.2836,VALID,-0.0169808,VALID,19.2769,VALID,357,VALID,0.255279,
1999-08-20, 03:40:00,VALID,0,VALID,98.3306,VALID,0,VALID,19.2836,VALID,101,VALID,0.463616,
1999-08-20, 03:41:00,VALID,0,VALID,98.4184,VALID,-0.0169808,VALID,19.2961,VALID,99,VALID,0.926116,
1999-08-20, 03:42:00,VALID,0,VALID,98.3904,VALID,-0.0169808,VALID,19.2968,VALID,91,VALID,0.946461,
1999-08-20, 03:43:00,VALID,0,VALID,98.3383,VALID,-0.0339617,VALID,19.2799,VALID,101,VALID,0.974029,
1999-08-20, 03:44:00,VALID,0,VALID,98.3662,VALID,-0.0169808,VALID,19.2866,VALID,102,VALID,0.583482,
1999-08-20, 03:45:00,VALID,0,VALID,98.4095,VALID,-0.0339617,VALID,19.2836,VALID,108,VALID,0.00267857,
1999-08-20, 03:46:00,VALID,0,VALID,98.4133,VALID,-0.0169808,VALID,19.3037,VALID,26,VALID,0.160156,
1999-08-20, 03:47:00,VALID,0,VALID,98.3879,VALID,-0.0169808,VALID,19.2903,VALID,287,VALID,0.101774,
1999-08-20, 03:48:00,VALID,0,VALID,98.4108,VALID,-0.0509425,VALID,19.2772,VALID,283,VALID,0.2375,
1999-08-20, 03:49:00,VALID,0,VALID,98.4133,VALID,-0.0339617,VALID,19.2645,VALID,281,VALID,0.282589,
1999-08-20, 03:50:00,VALID,0,VALID,98.4934,VALID,-0.0169808,VALID,19.264,VALID,150,VALID,0.491039,
1999-08-20, 03:51:00,VALID,0,VALID,98.5214,VALID,-0.0169808,VALID,19.2707,VALID,64,VALID,0.602407,
1999-08-20, 03:52:00,VALID,0,VALID,98.6028,VALID,-0.0339617,VALID,19.2772,VALID,338,VALID,0.272321,
1999-08-20, 03:53:01,VALID,0,VALID,98.5989,VALID,0,VALID,19.2774,VALID,261,VALID,0.000446429,
1999-08-20, 03:54:00,VALID,0,VALID,98.6091,VALID,-0.0169808,VALID,19.2707,VALID,261,VALID,0.195542,
1999-08-20, 03:55:00,VALID,0,VALID,98.6078,VALID,-0.0509425,VALID,19.2608,VALID,261,VALID,0.0109797,
1999-08-20, 03:56:00,VALID,0,VALID,98.6282,VALID,0,VALID,19.2573,VALID,260,VALID,0,
1999-08-20, 03:57:00,VALID,0,VALID,98.6625,VALID,0,VALID,19.2605,VALID,237,VALID,0.302455,
1999-08-20, 03:58:00,VALID,0,VALID,98.6816,VALID,0,VALID,19.2642,VALID,127,VALID,0.213006,
1999-08-20, 03:59:00,VALID,0,VALID,98.7261,VALID,-0.0339617,VALID,19.2705,VALID,56,VALID,0.214105,
1999-08-20, 04:00:00,VALID,0,VALID,98.6702,VALID,0,VALID,19.2513,VALID,327,VALID,0.52567,
1999-08-20, 04:01:00,VALID,0,VALID,98.7197,VALID,0,VALID,19.2384,VALID,316,VALID,0.284598,
1999-08-20, 04:02:00,VALID,0,VALID,98.8253,VALID,-0.0169808,VALID,19.2578,VALID,132,VALID,0.314568,
1999-08-20, 04:03:00,VALID,0,VALID,98.852,VALID,0,VALID,19.2575,VALID,279,VALID,0.197424,
1999-08-20, 04:04:00,VALID,0,VALID,98.8494,VALID,0,VALID,19.2635,VALID,210,VALID,0,
1999-08-20, 04:05:00,VALID,0,VALID,98.8609,VALID,0,VALID,19.2635,VALID,200,VALID,0,
1999-08-20, 04:06:00,VALID,0,VALID,98.88,VALID,0,VALID,19.2637,VALID,230,VALID,0,
1999-08-20, 04:07:00,VALID,0,VALID,98.8965,VALID,0.0169808,VALID,19.2702,VALID,229,VALID,0,
1999-08-20, 04:08:00,VALID,0,VALID,98.8762,VALID,-0.0169808,VALID,19.2635,VALID,250,VALID,0.0573661,